Medford, OR

1:21 AM PDT on May 26, 2018 (GMT -0700)
Rogue Valley International-Medford

Weather History for KMFR - March, 2014

Change the Weather History Date:

Saturday, March 1, 2014

  Actual Average Record
Temperature  
Mean Temperature 54 °F 46 °F  
Max Temperature 63 °F 57 °F 73 °F (1926)
Min Temperature 45 °F 35 °F 14 °F (1917)
Degree Days  
Heating Degree Days 11 19  
Month to date heating degree days 11 19  
Since 1 July heating degree days 3381 3133  
Cooling Degree Days 0 0  
Month to date cooling degree days 0 0  
Year to date cooling degree days 0 0  
Growing Degree Days 3 (Base 50)    
Moisture  
Dew Point 43 °F    
Average Humidity 71    
Maximum Humidity 92    
Minimum Humidity 49    
Precipitation  
Precipitation 0.04 in 0.07 in 1.43 in (1972)
Month to date precipitation 0.04 0.07  
Year to date precipitation 5.37 4.51  
Snow  
Snow 0.00 in 0.00 in - ()
Month to date snowfall 0.0 0.0  
Since 1 July snowfall 3.4 3.6  
Snow Depth 0.00 in    
Sea Level Pressure  
Sea Level Pressure 29.66 in    
Wind  
Wind Speed 2 mph (North)    
Max Wind Speed 12 mph    
Max Gust Speed 14 mph    
Visibility 10 miles    
Events Rain    
T = Trace of Precipitation, MM = Missing Value Source: NWS Daily Summary

Daily Weather History Graph

Daily Weather History Graph

Search for Another Location

Airport or City:

Astronomy

Mar. 01, 2014 Rise Set
Actual Time 6:46 AM PST 6:01 PM PST
Civil Twilight 6:18 AM PST 6:29 PM PST
Nautical Twilight 5:46 AM PST 7:02 PM PST
Astronomical Twilight 5:13 AM PST 7:34 PM PST
Moon 6:42 AM PST (3/1) 6:57 PM PST (3/1)
Length of Visible Light 12h 11m
Length of Day
11h 14m
New Moon, 0% of the Moon is Illuminated
Mar 1
New Moon
Mar 8
First Quarter
Mar 16
Full
Mar 23
Last Quarter
Mar 30
New

Hourly Weather History & Observations

Time (PST) Temp. Windchill Dew Point Humidity Pressure Visibility Wind Dir Wind Speed Gust Speed Precip Events Conditions
12:53 AM 46.0 °F - 39.0 °F 76% 29.49 in 10.0 mi Calm Calm - 0.00 in Rain Light Rain
1:53 AM 45.0 °F 41.8 °F 41.0 °F 86% 29.52 in 10.0 mi SE 5.8 mph - 0.00 in   Overcast
2:53 AM 45.0 °F - 41.0 °F 86% 29.54 in 10.0 mi Calm Calm - 0.01 in Rain Light Rain
3:53 AM 45.0 °F - 42.1 °F 90% 29.56 in 10.0 mi Calm Calm - 0.03 in   Overcast
4:53 AM 45.0 °F - 43.0 °F 93% 29.59 in 10.0 mi Calm Calm - N/A   Overcast
5:53 AM 46.0 °F - 43.0 °F 89% 29.61 in 10.0 mi Calm Calm - N/A   Overcast
6:53 AM 45.0 °F 43.5 °F 43.0 °F 93% 29.63 in 10.0 mi NNW 3.5 mph - N/A   Overcast
7:53 AM 46.0 °F 44.8 °F 43.0 °F 89% 29.67 in 10.0 mi NE 3.5 mph - 0.00 in   Overcast
8:53 AM 48.0 °F - 44.1 °F 86% 29.69 in 8.0 mi NNW 3.5 mph - N/A   Overcast
9:53 AM 50.0 °F - 45.0 °F 83% 29.70 in 10.0 mi Calm Calm - N/A   Overcast
10:36 AM 52.0 °F - 46.0 °F 80% 29.71 in 10.0 mi NNE 4.6 mph - N/A   Overcast
10:53 AM 53.1 °F - 46.0 °F 77% 29.71 in 10.0 mi NNE 5.8 mph - N/A   Overcast
11:53 AM 57.9 °F - 45.0 °F 62% 29.70 in 10.0 mi NE 4.6 mph - N/A   Clear
12:53 PM 60.1 °F - 43.0 °F 53% 29.68 in 10.0 mi NNE 6.9 mph - N/A   Clear
1:53 PM 60.1 °F - 41.0 °F 49% 29.66 in 10.0 mi Calm Calm - N/A   Clear
2:53 PM 61.0 °F - 41.0 °F 48% 29.67 in 10.0 mi NNW 4.6 mph - N/A   Mostly Cloudy
3:53 PM 60.1 °F - 41.0 °F 49% 29.68 in 10.0 mi West 4.6 mph - 0.00 in   Mostly Cloudy
4:53 PM 57.9 °F - 45.0 °F 62% 29.68 in 10.0 mi Calm Calm - 0.00 in   Mostly Cloudy
5:53 PM 57.0 °F - 45.0 °F 64% 29.70 in 10.0 mi Calm Calm - N/A   Overcast
6:53 PM 55.0 °F - 44.1 °F 67% 29.73 in 10.0 mi SSW 4.6 mph - 0.00 in   Overcast
7:53 PM 52.0 °F - 44.1 °F 74% 29.73 in 10.0 mi SSW 3.5 mph - N/A   Overcast
8:53 PM 52.0 °F - 43.0 °F 71% 29.75 in 10.0 mi West 3.5 mph - N/A   Mostly Cloudy
9:53 PM 50.0 °F - 43.0 °F 77% 29.75 in 10.0 mi Calm Calm - N/A   Mostly Cloudy
10:53 PM 50.0 °F - 43.0 °F 77% 29.76 in 10.0 mi Calm Calm - N/A   Mostly Cloudy
11:53 PM 48.9 °F - 45.0 °F 86% 29.77 in 10.0 mi Calm Calm - 0.00 in   Overcast